Location: Unspecified
(17.6330°N, 0.0000°E)
Time: 18:00:59
(UTC+00:00)

Courier 1B Rocket - Pass Details

Date: 04 July 2019
Orbit: 920 x 1202 km, 28.3° (Epoch: 22 August)

Event Time Altitude Azimuth Distance (km) Brightness Sun altitude
Exits shadow 02:55:55 21° 311° (NW) 2,334 6.9 -31.7°
Maximum altitude 03:00:39 44° 11° (NNE) 1,513 6.2 -30.8°
Drops below altitude 10° 03:07:26 10° 82° (E) 2,903 8.1 -29.6°
Sets 03:10:14 0° 89° (E) 3,813 8.8 -29.1°
